Flag for Guyana Weather past 2 weeks in Linden, Guyana

Now
86 °F

Broken clouds.


Feels Like: 95 °F
Forecast: 74 / 84 °F
Wind: 18 mph from Northeast

Location: Georgetown/Cheddi Jagan International Airport

Current Time: Apr 19, 2015 at 11:08:57 AM

Latest Report: Apr 19, 2015 at 11:00 AM


Visibility: N/A

Pressure: 29.98 "Hg

Humidity: 70%

Dew point: 75 °F

Location of LindenLocation

Historic Weather in Linden — Graph

°F

Linden temperature yesterday

Maximum temperature yesterday: 86 °F (at 1:00 PM)
Minimum temperature yesterday: 72 °F (at 5:00 AM)
Average temperature yesterday: 78 °F

Past Weeks' High & Low Weather Summary

 TemperatureHumidityPressure
High90 °F (Apr 4, 1:00 PM)100% (Apr 5, 1:00 AM)30.04 "Hg (Apr 5, 1:00 AM)
Low66 °F (Apr 6, 6:00 AM)49% (Apr 4, 1:00 PM)29.83 "Hg (Apr 4, 3:00 PM)
Average79 °F83%29.91 "Hg
* Reported Apr 4 10:00 AM — Apr 19 10:00 AM, Linden, Weather by CustomWeather, © 2015

Note: Actual official high and low records may vary slightly from our data, if they occured in-between our weather recording intervals... More about our weather records

Advertising

Linden weather history for previous 24 hours

 ConditionsComfort  
Time TempWeatherWind HumidityBarometerVisibility
10:00 AM
Sun, Apr 19
82 °FBroken clouds.9 mph79%29.98 "HgN/A
9:00 AM81 °FBroken clouds.8 mph84%29.98 "HgN/A
8:00 AM79 °FBroken clouds.7 mph89%29.95 "HgN/A
7:00 AM77 °FPartly sunny.5 mph94%29.92 "HgN/A
6:00 AM73 °FBroken clouds.No wind94%29.92 "HgN/A
5:00 AM73 °FPassing clouds.5 mph100%29.89 "HgN/A
4:00 AM75 °FPassing clouds.No wind94%29.89 "HgN/A
3:00 AM75 °FPassing clouds.5 mph100%29.89 "HgN/A
2:00 AM75 °FPassing clouds.5 mph100%29.89 "HgN/A
1:00 AM75 °FPassing clouds.5 mph100%29.92 "HgN/A
11:00 PM
Sat, Apr 18
75 °FPassing clouds.5 mph100%29.95 "HgN/A
10:00 PM75 °FPassing clouds.5 mph100%29.95 "HgN/A
9:00 PM75 °FPassing clouds.5 mph100%29.95 "HgN/A
8:00 PM77 °FPassing clouds.5 mph94%29.92 "HgN/A
7:00 PM77 °FPartly cloudy.9 mph94%29.89 "HgN/A
6:00 PM79 °FPassing clouds.9 mph89%29.89 "HgN/A
5:00 PM79 °FScattered clouds.9 mph89%29.86 "Hg6 mi
4:00 PM81 °FSprinkles. Partly sunny.9 mph84%29.86 "Hg5 mi
3:00 PM82 °FBroken clouds.14 mph79%29.86 "HgN/A
2:00 PM82 °FBroken clouds.14 mph79%29.89 "HgN/A
1:00 PM86 °FPartly sunny.14 mph70%29.92 "HgN/A
12:00 PM84 °FBroken clouds.14 mph74%29.95 "HgN/A
11:00 AM84 °FBroken clouds.7 mph74%29.98 "HgN/A
Weather by CustomWeather, © 2015

See weather overviewHow to use our weather pages